www.pogodaiklimat.ru

Погода и климат >> Архив погоды >> Россия >> Якутия >> Андрюшкино


ПОГОДА в Андрюшкино

  • Прогноз погоды в Андрюшкино
  • Монитор погоды в Андрюшкино

АРХИВ ПОГОДЫ в Андрюшкино

Время (UTC), дата Ветер
(напр.,м/с)
 
Видим.   Явления Облачность Т
(С)
Тd
(С)
f
(%)
Тe
(С)
Тes
(С)
Комфортность P
(гПа)
Po
(гПа)
Тmin
(С)
Tmax
(С)
R
(мм)
R24
(мм)
S
(см)
03 12.02 Ю 2 50 км ясно -39.5 -42.3 74 -49 -48 опасность
обморожения
1015.3 1012.9
06 12.02 Ю 3 50 км ясно -40.0 -42.8 74 -52 -52 опасность
обморожения
1015.7 1013.3
09 12.02 Ю 3 50 км ясно -40.0 -42.8 74 -52 -52 опасность
обморожения
1016.3 1013.9 -41.3 -39.5
12 12.02 Ю 2 50 км ясно -40.1 -42.8 75 -49 -49 опасность
обморожения
1016.9 1014.5
15 12.02 Ю 3 50 км ясно -39.2 -41.8 76 -51 -51 опасность
обморожения
1016.7 1014.7
18 12.02 Ю 3 50 км ясно -32.9 -41.8 40 -43 -43 опасность
обморожения
1017.5 1015.1
21 12.02 Ю 3 50 км ясно -39.3 -42.3 73 -51 -51 опасность
обморожения
1018.9 1016.5 -40.6 29
00 13.02 Ю 3 50 км 3/0
[Ci fib]
-40.0 -42.8 74 -52 -51 опасность
обморожения
1020.0 1017.6
03 13.02 Ю 2 50 км 4/0
[Ci fib]
-37.5 -40.5 73 -46 -46 опасность
обморожения
1020.8 1018.4
06 13.02 Ю 2 50 км 1/0
[Ci fib]
-39.0 -41.8 75 -48 -48 опасность
обморожения
1022.0 1019.6
09 13.02 Ю 2 50 км ясно -39.5 -42.3 74 -49 -49 опасность
обморожения
1023.2 1020.8 -37.5
12 13.02 Ю 2 50 км ясно -40.0 -42.8 74 -49 -49 опасность
обморожения
1023.8 1021.4
15 13.02 штиль 0 50 км ясно -41.0 -43.8 74 -41 -41 опасность
обморожения
1023.3 1020.9
18 13.02 В 1 50 км ясно -41.5 -44.4 73 -47 -47 опасность
обморожения
1022.6 1020.2
21 13.02 В 2 50 км 1/0
[Ac trans]
-41.0 -43.2 79 -50 -50 опасность
обморожения
1021.2 1018.8 -42.4 29
00 14.02 ЮВ 1 50 км ясно -41.4 -42.8 86 -47 -46 опасность
обморожения
1023.1 1017.7
03 14.02 штиль 0 50 км ясно -39.0 -41.8 75 -39 -39 опасность
обморожения
1018.2 1015.8
06 14.02 штиль 0 50 км ясно -39.5 -42.3 74 -40 -40 опасность
обморожения
1016.9 1014.5
09 14.02 штиль 0 50 км ясно -42.0 -45.0 72 -42 -42 опасность
обморожения
1016.1 1013.7 -39.0
12 14.02 штиль 0 50 км ясно -43.7 -46.3 75 -44 -44 опасность
обморожения
1014.9 1012.5
15 14.02 штиль 0 50 км ясно -44.0 -47.0 72 -44 -44 опасность
обморожения
1013.8 1011.4
18 14.02 штиль 0 50 км ясно -44.6 -47.0 77 -45 -45 опасность
обморожения
1012.1 1009.7
21 14.02 СВ 1 50 км ясно -45.6 -48.6 71 -51 -51 опасность
обморожения
1011.1 1008.7 -45.6 29
00 15.02 штиль 0 50 км ясно -45.0 -47.8 73 -45 -45 опасность
обморожения
1010.2 1007.8
03 15.02 штиль 0 50 км 1/0
[Ci fib]
-43.5 -46.3 74 -44 -43 опасность
обморожения
1008.4 1006.0
06 15.02 Ю 1 50 км ясно -43.5 -46.3 74 -49 -49 опасность
обморожения
1007.5 1005.1
09 15.02 Ю 1 50 км ясно -43.3 -46.3 72 -49 -49 опасность
обморожения
1006.9 1004.5 -43.3
12 15.02 штиль 0 50 км ясно -43.9 -46.3 77 -44 -44 опасность
обморожения
1006.0 1003.6
15 15.02 Ю 1 50 км 1/0
[Ci fib]
-43.0 -45.6 75 -49 -49 опасность
обморожения
1004.9 1002.5
18 15.02 Ю 1 50 км 4/0
[Ci fib]
-40.3 -43.3 73 -46 -46 опасность
обморожения
1004.3 1001.9
21 15.02 Ю 3 50 км 4/0
[Ci fib]
-39.2 -41.8 76 -51 -51 опасность
обморожения
1003.8 1001.4 -44.7 29
00 16.02 Ю 2 10 км снежные кристаллы 9/0
[As op Ci fib]
-38.0 -40.9 74 -47 -47 опасность
обморожения
1003.2 1000.8
03 16.02 Ю 1 10 км снежные кристаллы 9/0
[As op Ci fib]
-36.1 -39.0 74 -41 -41 опасность
обморожения
1002.2 999.9
06 16.02 З 1 50 км {снег} 10/0
[As op]
-34.0 -36.2 80 -39 -39 опасность
обморожения
1001.7 999.4
09 16.02 ЮЗ 1 10 км снежные кристаллы 10/0
[As op]
-33.5 -35.9 79 -38 -38 опасность
обморожения
1001.8 999.5 -33.0 0.2
12 16.02 З 1 10 км снежные кристаллы 10/0
[As op]
-32.7 -35.1 79 -37 -37 опасность
обморожения
1001.0 998.7
15 16.02 З 2 10 км снежные кристаллы 10/0
[As op]
-32.0 -34.4 79 -40 -40 опасность
обморожения
1001.0 998.7
18 16.02 З 1 50 км {снег} 10/0
[Ac As]
-31.4 -33.6 81 -36 -36 опасность
обморожения
1000.5 998.2
21 16.02 З 2 50 км 10/0
[Ac As]
-30.4 -32.8 79 -38 -38 опасность
обморожения
1001.1 998.8 -33.5 0.0 29
00 17.02 З 3 50 км 10/0
[Ac As]
-28.7 -31.2 79 -38 -38 опасность
обморожения
1001.3 999.0
03 17.02 З 3 50 км 10/0
[Ac As]
-26.5 -29.0 79 -35 -35 опасность
обморожения
1001.4 999.2
06 17.02 З 2 50 км 9/0
[Ac As]
-26.5 -29.0 79 -33 -33 опасность
обморожения
1002.5 1000.3
09 17.02 З 3 50 км 9/0
[Ac As]
-26.7 -29.2 79 -36 -36 опасность
обморожения
1003.5 1001.3 -26.2
12 17.02 ЮЗ 3 50 км 9/0
[Ac As]
-27.5 -30.0 79 -37 -37 опасность
обморожения
1004.4 1002.2
15 17.02 ЮЗ 2 50 км 10/0
[Ac As]
-27.0 -29.5 79 -34 -34 опасность
обморожения
1005.1 1002.8
18 17.02 ЮЗ 2 50 км 9/0
[Ac As]
-27.0 -29.5 79 -34 -34 опасность
обморожения
1005.8 1003.5
21 17.02 ЮЗ 3 50 км 9/0
[Ac As]
-29.9 -32.4 79 -39 -39 опасность
обморожения
1007.0 1004.7 -29.9 29
00 18.02 Ю 2 50 км 4/0
[As trans Ci fib]
-34.0 -36.2 80 -42 -42 опасность
обморожения
1008.4 1006.1
03 18.02 Ю 2 50 км 4/0
[As trans Ci fib]
-34.0 -36.8 76 -42 -42 опасность
обморожения
1009.3 1007.0
06 18.02 Ю 2 50 км 3/0
[As trans Ci fib]
-36.3 -39.0 76 -45 -45 опасность
обморожения
1010.6 1008.2
09 18.02 Ю 2 50 км ясно -37.7 -40.5 75 -46 -46 опасность
обморожения
1012.3 1009.9 -38.1 -29.7
12 18.02 Ю 2 50 км ясно -38.6 -41.4 75 -48 -48 опасность
обморожения
1013.5 1011.1
15 18.02 Ю 2 50 км ясно -39.6 -42.3 75 -49 -49 опасность
обморожения
1014.1 1011.7
18 18.02 Ю 2 50 км ясно -39.7 -42.3 76 -49 -49 опасность
обморожения
1015.0 1012.6
21 18.02 Ю 2 50 км ясно -40.0 -42.8 74 -49 -49 опасность
обморожения
1016.0 1013.6 -40.8 29
00 19.02 Ю 2 50 км ясно -40.0 -42.8 74 -49 -49 опасность
обморожения
1016.9 1014.5

 

Местоположение метеостанции Андрюшкино (Якутия, Россия): широта 69.17 долгота 154.50 высота над уровнем моря 16 м.

В архиве по умолчанию представлена погода в Андрюшкино за последнюю неделю. Архивные данные за месяц целиком и за предыдущие месяцы, начиная с января 2011 года, Вы можете получить, выбрав интересующий диапазон дат из раскрывающегося списка и нажав кнопку "Ввод!".


*Определитесь, кто Вы:
робот инопланетянин человек

Внимание! Время в таблицах - всемирное. Для получения местного времени необходимо прибавить поправку, которая равна 11 ч.

Смотрите также архив погоды в соседних городах и на ближайших метеорологических станциях:

Погода в Колымской (Якутия, Россия) (171 км)
Погода в Среднеколымске (Якутия, Россия) (194 км)
Погода в Черском (Якутия, Россия) (276 км)
Погода в Константиновской (Чукотка, Россия) (290 км)
Погода в Анюйске (Чукотка, Россия) (296 км)
Погода в Чокурдахе (Якутия, Россия) (302 км)
Погода в Бухте Амбарчик (Чукотка, Россия) (309 км)
Погода в Белой Горе (Якутия, Россия) (340 км)
Погода в Островном (Чукотка, Россия) (406 км)
Погода в Зырянке (Якутия, Россия) (412 км)

Пояснения к столбцам:

Ветер - указаны скорость ветра в м/с - средняя за 10 мин, порывы в срок и между сроками (в фигурных скобках) и направление, откуда дует ветер: С - северный, СВ - северо-восточный, В - восточный, ЮВ - юго-восточный, Ю - южный, ЮЗ - юго-западный, З - западный, СЗ - северо-западный.
Видимость - горизонтальная дальность видимости в метрах или километрах. При видимости от 1 до 10 км при отсутствии осадков обычно наблюдается дымка, при ухудшении видимости до 1 км и менее - туман. В сухую погоду видимость может ухудшаться дымом, пылью или мглою.
Явления - указаны атмосферные явления, наблюдавшиеся в срок или в последний час перед сроком; фигурными скобками обозначены явления, наблюдавшиеся между сроками (за 1-3 часа до срока); квадратными скобками обозначены град или гололедные отложения с указанием их диаметра в мм.
Облачность - указаны через наклонную черту общая и нижняя облачность в баллах и высота нижней границы облаков в метрах; квадратными скобками обозначены формы облаков: Ci - перистые, Cs - перисто-слоистые, Cc - перисто-кучевые, Ac - высококучевые, As - высокослоистые, Sc - слоисто-кучевые, Ns - слоисто-дождевые, Cu - кучевые, Cb - кучево-дождевые. Подробнее классификацию облаков см. в Атласе облаков (PDF).
T - Температура воздуха - температура, измеренная на высоте 2 м над землей.
Td - Температура точки росы - температура, при понижении до которой содержащийся в воздухе водяной пар достигнет насыщения.
f - Относительная влажность воздуха - влажноcть воздуха, измеренная на высоте 2 м над землей.
Te - Эффективная температура - температура, которую ощущает одетый по сезону человек в тени. Характеристика душности погоды. При расчете учитывается влияние влажности воздуха и скорости ветра на теплоощущения человека.
Tes - Эффективная температура на солнце - температура, которую ощущает человек, с поправкой на солнечный нагрев. Характеристика знойности погоды. Зависит от высоты солнца над горизонтом, облачности и скорости ветра. Ночью, в пасмурную погоду, а также при ветре 12 м/с и более поправка равна нулю.
P - Атмосферное давление - приведенное к уровню моря атмосферное давление.
Po - Атмосферное давление - измеренное на уровне метеостанции атмосферное давление.
Tmin - Минимальная температура - минимум температуры воздуха на высоте 2 м над землей.
Tmax - Максимальная температура - максимум температуры воздуха на высоте 2 м над землей.
R - Количество осадков - Количество выпавших осадков за период времени, мм. При наведении курсора мыши на число - период времени, за который выпало указанное количество осадков.
R24 - Количество осадков - Количество выпавших осадков за 24 часа, мм.
S - Снежный покров - Высота снежного покрова, см. При наведении курсора мыши на число - состояние снежного покрова и степень покрытия местности в баллах.